| time (UTC) | temp F | wind direction | speed MPH | gust MPH | rain 1hr in | rain 24hr in | rain mn in | humidity % | barometer mb |
| 20260906031612 | 59 | 33 | 0.0 | 2.0 | 0.00 | 0.01 | 0.01 | 10 | 1021.3 |
| 20260906031107 | 59 | 20 | 1.0 | 2.0 | 0.00 | 0.01 | 0.01 | 10 | 1021.2 |
| 20260906030606 | 59 | 25 | 0.0 | 0.0 | 0.00 | 0.01 | 0.01 | 10 | 1021.3 |
| 20260906025556 | 59 | 22 | 0.0 | 0.0 | 0.00 | 0.01 | 0.01 | 10 | 1021.1 |
| 20260906025054 | 59 | 52 | 0.0 | 0.0 | 0.00 | 0.01 | 0.01 | 10 | 1021.0 |
| 20260906024550 | 59 | 37 | 0.0 | 2.0 | 0.00 | 0.01 | 0.01 | 10 | 1021.0 |
| 20260906024049 | 59 | 45 | 0.0 | 0.0 | 0.00 | 0.01 | 0.01 | 10 | 1020.9 |
| 20260906023546 | 59 | 17 | 0.0 | 2.0 | 0.00 | 0.01 | 0.01 | 10 | 1020.7 |
| 20260906023040 | 59 | 39 | 0.0 | 0.0 | 0.00 | 0.01 | 0.01 | 10 | 1020.9 |
| 20260906022535 | 60 | 47 | 0.0 | 0.0 | 0.00 | 0.01 | 0.01 | 10 | 1020.7 |
| 20260906022031 | 60 | 31 | 0.0 | 1.0 | 0.00 | 0.01 | 0.01 | 10 | 1020.6 |
| 20260906021526 | 60 | 30 | 1.0 | 2.0 | 0.00 | 0.01 | 0.01 | 10 | 1020.8 |
| 20260906021020 | 60 | 27 | 0.0 | 0.0 | 0.00 | 0.01 | 0.01 | 10 | 1020.9 |
| 20260906020519 | 60 | 32 | 1.0 | 1.0 | 0.00 | 0.01 | 0.01 | 10 | 1021.0 |
| 20260906020019 | 60 | 24 | 0.0 | 0.0 | 0.00 | 0.01 | 0.01 | 10 | 1020.9 |
| 20260906015518 | 61 | 24 | 0.0 | 1.0 | 0.00 | 0.01 | 0.01 | 10 | 1021.0 |
| 20260906015018 | 61 | 35 | 1.0 | 2.0 | 0.00 | 0.01 | 0.01 | 10 | 1020.9 |
| 20260906014513 | 61 | 36 | 0.0 | 1.0 | 0.00 | 0.01 | 0.01 | 10 | 1020.8 |
| 20260906014009 | 61 | 29 | 0.0 | 0.0 | 0.00 | 0.01 | 0.01 | 10 | 1020.9 |
| 20260906013504 | 62 | 22 | 0.0 | 0.0 | 0.00 | 0.01 | 0.01 | 10 | 1020.7 |
| 20260906013000 | 62 | 22 | 0.0 | 0.0 | 0.00 | 0.01 | 0.01 | 10 | 1020.9 |
| 20260906012454 | 62 | 23 | 0.0 | 1.0 | 0.00 | 0.01 | 0.01 | 10 | 1020.6 |
| 20260906011954 | 62 | 19 | 0.0 | 2.0 | 0.00 | 0.01 | 0.01 | 10 | 1020.5 |
| 20260906011449 | 62 | 39 | 0.0 | 1.0 | 0.00 | 0.01 | 0.01 | 10 | 1020.8 |
| 20260906010944 | 63 | 341 | 0.0 | 2.0 | 0.00 | 0.01 | 0.01 | 10 | 1020.5 |
| 20260906010440 | 64 | 8 | 1.0 | 3.0 | 0.00 | 0.01 | 0.01 | 10 | 1020.6 |
| 20260906005936 | 64 | 28 | 1.0 | 2.0 | 0.00 | 0.01 | 0.01 | 10 | 1020.6 |
| 20260906005436 | 65 | 20 | 0.0 | 2.0 | 0.00 | 0.01 | 0.01 | 10 | 1020.6 |
| 20260906004934 | 66 | 22 | 1.0 | 2.0 | 0.00 | 0.01 | 0.01 | 10 | 1020.7 |
| 20260906004429 | 66 | 22 | 0.0 | 2.0 | 0.00 | 0.01 | 0.01 | 10 | 1020.6 |
| 20260906003925 | 66 | 15 | 0.0 | 2.0 | 0.00 | 0.01 | 0.01 | 10 | 1020.7 |
| 20260906003419 | 67 | 27 | 0.0 | 0.0 | 0.00 | 0.01 | 0.01 | 10 | 1020.5 |
| 20260906002915 | 67 | 6 | 0.0 | 1.0 | 0.00 | 0.01 | 0.01 | 10 | 1020.5 |
| 20260906002414 | 67 | 29 | 0.0 | 0.0 | 0.00 | 0.01 | 0.01 | 10 | 1020.5 |
| 20260906001909 | 67 | 26 | 1.0 | 5.0 | 0.00 | 0.01 | 0.01 | 10 | 1020.5 |
| 20260906001405 | 68 | 20 | 0.0 | 2.0 | 0.00 | 0.01 | 0.01 | 10 | 1020.7 |
| 20260906000905 | 68 | 22 | 0.0 | 2.0 | 0.00 | 0.01 | 0.01 | 10 | 1020.7 |
| 20260906000403 | 68 | 328 | 1.0 | 2.0 | 0.00 | 0.01 | 0.01 | 10 | 1020.8 |
| 20260905235855 | 68 | 30 | 0.0 | 2.0 | 0.00 | 0.01 | 0.01 | 10 | 1020.9 |
| 20260905235349 | 68 | 19 | 0.0 | 1.0 | 0.00 | 0.01 | 0.01 | 10 | 1020.8 |
| 20260905234844 | 68 | 28 | 0.0 | 0.0 | 0.00 | 0.01 | 0.01 | 10 | 1020.8 |
| 20260905234340 | 68 | 19 | 0.0 | 3.0 | 0.00 | 0.01 | 0.01 | 10 | 1020.8 |
| 20260905233835 | 69 | 19 | 0.0 | 0.0 | 0.00 | 0.01 | 0.01 | 10 | 1021.0 |
| 20260905233330 | 69 | 19 | 0.0 | 0.0 | 0.00 | 0.01 | 0.01 | 10 | 1020.7 |
| 20260905232829 | 68 | 17 | 0.0 | 1.0 | 0.00 | 0.01 | 0.01 | 10 | 1020.9 |
| 20260905232325 | 69 | 1 | 0.0 | 1.0 | 0.00 | 0.01 | 0.01 | 10 | 1020.8 |
| 20260905231821 | 70 | 32 | 0.0 | 0.0 | 0.00 | 0.01 | 0.01 | 10 | 1021.1 |
| 20260905231316 | 69 | 17 | 1.0 | 2.0 | 0.00 | 0.01 | 0.01 | 10 | 1020.7 |
| 20260905230812 | 70 | 31 | 0.0 | 0.0 | 0.00 | 0.01 | 0.01 | 10 | 1020.7 |
| 20260905230310 | 69 | 31 | 0.0 | 0.0 | 0.00 | 0.01 | 0.01 | 10 | 1020.8 |
| 20260905225809 | 70 | 25 | 0.0 | 1.0 | 0.00 | 0.01 | 0.01 | 10 | 1020.7 |
| 20260905225306 | 70 | 48 | 0.0 | 0.0 | 0.00 | 0.01 | 0.01 | 10 | 1020.7 |
| 20260905224804 | 70 | 22 | 0.0 | 1.0 | 0.00 | 0.01 | 0.01 | 10 | 1020.8 |
| 20260905224300 | 71 | 39 | 1.0 | 2.0 | 0.00 | 0.01 | 0.01 | 10 | 1020.3 |
| 20260905223755 | 70 | 60 | 0.0 | 0.0 | 0.00 | 0.01 | 0.01 | 10 | 1020.6 |
| 20260905223252 | 70 | 26 | 0.0 | 0.0 | 0.00 | 0.01 | 0.01 | 10 | 1020.7 |
| 20260905222747 | 70 | 37 | 0.0 | 1.0 | 0.00 | 0.01 | 0.01 | 10 | 1020.8 |
| 20260905222246 | 70 | 41 | 0.0 | 1.0 | 0.00 | 0.01 | 0.01 | 10 | 1020.8 |
| 20260905221742 | 70 | 46 | 0.0 | 0.0 | 0.00 | 0.01 | 0.01 | 10 | 1020.8 |
| 20260905221239 | 70 | 33 | 0.0 | 0.0 | 0.00 | 0.01 | 0.01 | 10 | 1020.8 |
| 20260905220735 | 71 | 28 | 0.0 | 0.0 | 0.00 | 0.01 | 0.01 | 10 | 1020.9 |
| 20260905220231 | 71 | 47 | 0.0 | 0.0 | 0.00 | 0.01 | 0.01 | 10 | 1020.9 |
| 20260905215730 | 70 | 25 | 0.0 | 0.0 | 0.00 | 0.01 | 0.01 | 10 | 1020.7 |
| 20260905215226 | 70 | 45 | 0.0 | 0.0 | 0.00 | 0.01 | 0.01 | 10 | 1020.9 |
| 20260905214721 | 71 | 39 | 0.0 | 1.0 | 0.00 | 0.01 | 0.01 | 10 | 1020.8 |
| 20260905214217 | 71 | 39 | 0.0 | 0.0 | 0.00 | 0.01 | 0.01 | 10 | 1020.7 |
| 20260905213712 | 70 | 4 | 1.0 | 2.0 | 0.00 | 0.01 | 0.01 | 10 | 1020.7 |
| 20260905213208 | 71 | 10 | 0.0 | 1.0 | 0.00 | 0.01 | 0.01 | 10 | 1020.7 |
| 20260905212703 | 71 | 49 | 0.0 | 1.0 | 0.00 | 0.01 | 0.01 | 10 | 1020.6 |
| 20260905212202 | 70 | 65 | 0.0 | 1.0 | 0.00 | 0.01 | 0.01 | 10 | 1020.9 |
| 20260905211657 | 71 | 51 | 0.0 | 1.0 | 0.00 | 0.01 | 0.01 | 10 | 1020.7 |
| 20260905211152 | 70 | 41 | 0.0 | 0.0 | 0.00 | 0.01 | 0.01 | 10 | 1021.0 |
| 20260905210649 | 71 | 58 | 0.0 | 1.0 | 0.00 | 0.01 | 0.01 | 10 | 1020.8 |
| 20260905210149 | 71 | 43 | 0.0 | 2.0 | 0.00 | 0.01 | 0.01 | 10 | 1020.7 |
| 20260905205647 | 71 | 26 | 0.0 | 0.0 | 0.00 | 0.01 | 0.01 | 10 | 1020.9 |
| 20260905205142 | 71 | 57 | 0.0 | 0.0 | 0.00 | 0.01 | 0.01 | 10 | 1020.6 |
| 20260905204641 | 71 | 65 | 0.0 | 0.0 | 0.00 | 0.01 | 0.01 | 10 | 1020.9 |
| 20260905204136 | 70 | 111 | 1.0 | 1.0 | 0.00 | 0.01 | 0.01 | 10 | 1020.8 |
| 20260905203637 | 71 | 76 | 0.0 | 0.0 | 0.00 | 0.01 | 0.01 | 10 | 1020.7 |
| 20260905203132 | 71 | 147 | 0.0 | 0.0 | 0.00 | 0.01 | 0.01 | 10 | 1020.6 |
| 20260905202628 | 72 | 71 | 0.0 | 0.0 | 0.00 | 0.01 | 0.01 | 10 | 1020.9 |
| 20260905202123 | 71 | 60 | 0.0 | 0.0 | 0.00 | 0.01 | 0.01 | 10 | 1020.9 |
| 20260905201619 | 71 | 33 | 0.0 | 0.0 | 0.00 | 0.01 | 0.01 | 10 | 1020.9 |
| 20260905201118 | 71 | 70 | 0.0 | 0.0 | 0.00 | 0.01 | 0.01 | 10 | 1021.0 |
| 20260905200614 | 71 | 44 | 0.0 | 0.0 | 0.00 | 0.01 | 0.01 | 10 | 1021.0 |
| 20260905200109 | 70 | 306 | 0.0 | 0.0 | 0.00 | 0.01 | 0.01 | 10 | 1021.0 |
| 20260905195607 | 71 | 350 | 0.0 | 0.0 | 0.00 | 0.01 | 0.01 | 10 | 1021.0 |
| 20260905195103 | 71 | 43 | 0.0 | 0.0 | 0.00 | 0.01 | 0.01 | 10 | 1021.3 |
| 20260905194602 | 70 | 73 | 0.0 | 0.0 | 0.00 | 0.01 | 0.01 | 10 | 1021.1 |
| 20260905194102 | 70 | 36 | 0.0 | 1.0 | 0.00 | 0.01 | 0.01 | 10 | 1021.3 |
| 20260905193557 | 70 | 73 | 0.0 | 1.0 | 0.00 | 0.01 | 0.01 | 10 | 1021.1 |
| 20260905193052 | 71 | 17 | 0.0 | 1.0 | 0.00 | 0.01 | 0.01 | 10 | 1021.4 |
| 20260905192547 | 71 | 46 | 0.0 | 1.0 | 0.00 | 0.01 | 0.01 | 10 | 1021.3 |
| 20260905192044 | 69 | 61 | 0.0 | 0.0 | 0.00 | 0.01 | 0.01 | 10 | 1021.2 |
| 20260905191542 | 70 | 307 | 0.0 | 0.0 | 0.00 | 0.01 | 0.01 | 10 | 1021.6 |
| 20260905191036 | 69 | 310 | 0.0 | 0.0 | 0.00 | 0.01 | 0.01 | 10 | 1021.8 |
| 20260905190534 | 69 | 299 | 0.0 | 0.0 | 0.00 | 0.01 | 0.01 | 10 | 1021.6 |
| 20260905190034 | 69 | 13 | 0.0 | 0.0 | 0.00 | 0.01 | 0.01 | 10 | 1021.6 |
| 20260905185533 | 70 | 344 | 0.0 | 0.0 | 0.00 | 0.01 | 0.01 | 10 | 1021.8 |
| 20260905185032 | 70 | 32 | 0.0 | 1.0 | 0.00 | 0.01 | 0.01 | 10 | 1021.8 |
| 20260905184527 | 69 | 307 | 0.0 | 1.0 | 0.00 | 0.01 | 0.01 | 10 | 1021.8 |
| 20260905184026 | 69 | 327 | 0.0 | 0.0 | 0.00 | 0.01 | 0.01 | 10 | 1021.8 |
| 20260905183525 | 68 | 5 | 0.0 | 0.0 | 0.00 | 0.01 | 0.01 | 10 | 1022.0 |
| 20260905183021 | 68 | 17 | 0.0 | 0.0 | 0.00 | 0.01 | 0.01 | 10 | 1021.9 |
| 20260905182515 | 68 | 342 | 0.0 | 0.0 | 0.00 | 0.01 | 0.01 | 10 | 1021.9 |
| 20260905182009 | 69 | 28 | 0.0 | 1.0 | 0.00 | 0.01 | 0.01 | 10 | 1022.0 |
| 20260905181504 | 68 | 293 | 0.0 | 1.0 | 0.00 | 0.01 | 0.01 | 10 | 1021.9 |
| 20260905181003 | 69 | 47 | 0.0 | 0.0 | 0.00 | 0.01 | 0.01 | 10 | 1021.9 |
| 20260905180458 | 67 | 40 | 0.0 | 0.0 | 0.00 | 0.01 | 0.01 | 10 | 1021.7 |
| 20260905175953 | 67 | 325 | 0.0 | 0.0 | 0.00 | 0.01 | 0.01 | 10 | 1021.9 |
| 20260905175452 | 67 | 304 | 0.0 | 0.0 | 0.00 | 0.01 | 0.01 | 10 | 1021.9 |
| 20260905174948 | 67 | 331 | 0.0 | 0.0 | 0.00 | 0.01 | 0.01 | 10 | 1021.9 |
| 20260905174443 | 68 | 19 | 0.0 | 1.0 | 0.00 | 0.01 | 0.01 | 10 | 1022.0 |
| 20260905173939 | 67 | 11 | 0.0 | 0.0 | 0.00 | 0.01 | 0.01 | 10 | 1021.8 |
| 20260905173436 | 67 | 343 | 0.0 | 1.0 | 0.00 | 0.01 | 0.01 | 10 | 1022.1 |
| 20260905172931 | 67 | 303 | 0.0 | 0.0 | 0.00 | 0.01 | 0.01 | 10 | 1021.9 |
| 20260905172428 | 66 | 39 | 0.0 | 0.0 | 0.00 | 0.01 | 0.01 | 10 | 1021.9 |
| 20260905171925 | 67 | 355 | 0.0 | 0.0 | 0.00 | 0.01 | 0.01 | 10 | 1022.0 |
| 20260905171421 | 66 | 327 | 0.0 | 0.0 | 0.00 | 0.01 | 0.01 | 10 | 1022.1 |
| 20260905170917 | 65 | 335 | 0.0 | 0.0 | 0.00 | 0.01 | 0.01 | 10 | 1022.1 |
| 20260905170413 | 65 | 317 | 0.0 | 1.0 | 0.00 | 0.01 | 0.01 | 10 | 1022.1 |
| 20260905165912 | 65 | 325 | 0.0 | 0.0 | 0.00 | 0.01 | 0.01 | 10 | 1022.3 |
| 20260905165408 | 65 | 346 | 0.0 | 0.0 | 0.00 | 0.01 | 0.01 | 10 | 1022.1 |
| 20260905164903 | 64 | 356 | 0.0 | 0.0 | 0.00 | 0.01 | 0.01 | 10 | 1021.8 |
| 20260905164357 | 63 | 28 | 0.0 | 0.0 | 0.00 | 0.01 | 0.01 | 10 | 1022.0 |
| 20260905163852 | 64 | 59 | 0.0 | 0.0 | 0.00 | 0.01 | 0.01 | 10 | 1021.8 |
| 20260905163349 | 63 | 37 | 0.0 | 0.0 | 0.00 | 0.01 | 0.01 | 10 | 1022.2 |
| 20260905162845 | 63 | 345 | 0.0 | 0.0 | 0.00 | 0.01 | 0.01 | 10 | 1022.1 |
| 20260905162344 | 63 | 17 | 0.0 | 0.0 | 0.00 | 0.01 | 0.01 | 10 | 1022.0 |
| 20260905161839 | 62 | 10 | 0.0 | 0.0 | 0.00 | 0.01 | 0.01 | 10 | 1022.1 |
| 20260905161338 | 61 | 25 | 0.0 | 0.0 | 0.00 | 0.01 | 0.01 | 10 | 1022.1 |
| 20260905160836 | 61 | 6 | 0.0 | 0.0 | 0.00 | 0.01 | 0.01 | 10 | 1022.0 |
| 20260905160331 | 61 | 25 | 0.0 | 0.0 | 0.00 | 0.01 | 0.01 | 10 | 1021.7 |
| 20260905155825 | 62 | 27 | 0.0 | 1.0 | 0.00 | 0.01 | 0.01 | 10 | 1021.7 |
| 20260905155325 | 60 | 41 | 0.0 | 0.0 | 0.00 | 0.01 | 0.01 | 10 | 1021.8 |
| 20260905154819 | 60 | 44 | 0.0 | 0.0 | 0.00 | 0.01 | 0.01 | 10 | 1021.9 |
| 20260905154315 | 60 | 44 | 0.0 | 0.0 | 0.00 | 0.01 | 0.01 | 10 | 1021.9 |
| 20260905153810 | 60 | 36 | 0.0 | 0.0 | 0.00 | 0.01 | 0.01 | 10 | 1021.7 |
| 20260905153307 | 60 | 38 | 0.0 | 0.0 | 0.00 | 0.01 | 0.01 | 10 | 1021.8 |
| 20260905152806 | 59 | 41 | 0.0 | 0.0 | 0.00 | 0.01 | 0.01 | 10 | 1021.9 |
| 20260905152306 | 59 | 52 | 0.0 | 0.0 | 0.00 | 0.01 | 0.01 | 10 | 1021.7 |
| 20260905151800 | 59 | 50 | 0.0 | 0.0 | 0.00 | 0.01 | 0.01 | 10 | 1022.1 |
| 20260905151256 | 58 | 47 | 0.0 | 0.0 | 0.00 | 0.01 | 0.01 | 10 | 1022.0 |
| 20260905150750 | 58 | 32 | 0.0 | 0.0 | 0.00 | 0.01 | 0.01 | 10 | 1021.7 |
| 20260905150250 | 57 | 27 | 0.0 | 0.0 | 0.00 | 0.01 | 0.01 | 10 | 1021.9 |
| 20260905145747 | 57 | 53 | 0.0 | 0.0 | 0.00 | 0.01 | 0.01 | 10 | 1022.1 |
| 20260905145242 | 57 | 52 | 0.0 | 0.0 | 0.00 | 0.01 | 0.01 | 10 | 1022.1 |
| 20260905144741 | 56 | 26 | 0.0 | 0.0 | 0.00 | 0.01 | 0.01 | 10 | 1022.0 |
| 20260905144237 | 55 | 346 | 0.0 | 0.0 | 0.00 | 0.01 | 0.01 | 10 | 1021.6 |
| 20260905143735 | 55 | 327 | 0.0 | 0.0 | 0.05 | 0.01 | 0.01 | 10 | 1021.6 |
| 20260905143235 | 54 | 340 | 0.0 | 0.0 | 0.05 | 0.01 | 0.01 | 10 | 1020.9 |
| 20260905142733 | 54 | 0 | 0.0 | 0.0 | 0.00 | 0.00 | 0.00 | 10 | 1021.3 |
| 20260905142228 | 54 | 20 | 0.0 | 1.0 | 0.00 | 0.00 | 0.00 | 10 | 1021.0 |
| 20260905141724 | 53 | 329 | 0.0 | 1.0 | 0.00 | 0.00 | 0.00 | 10 | 1021.4 |
| 20260905141220 | 53 | 326 | 0.0 | 0.0 | 0.00 | 0.00 | 0.00 | 10 | 1021.0 |
| 20260905140715 | 53 | 349 | 0.0 | 1.0 | 0.00 | 0.00 | 0.00 | 10 | 1021.3 |
| 20260905140215 | 53 | 312 | 0.0 | 2.0 | 0.00 | 0.00 | 0.00 | 10 | 1022.1 |
| 20260905135709 | 54 | 330 | 0.0 | 0.0 | 0.00 | 0.00 | 0.00 | 10 | 1022.7 |
| 20260905135205 | 54 | 301 | 0.0 | 0.0 | 0.00 | 0.00 | 0.00 | 10 | 1022.8 |
| 20260905134704 | 54 | 281 | 0.0 | 1.0 | 0.00 | 0.00 | 0.00 | 10 | 1022.4 |
| 20260905134204 | 54 | 275 | 0.0 | 0.0 | 0.00 | 0.00 | 0.00 | 10 | 1022.3 |
| 20260905133659 | 53 | 290 | 0.0 | 2.0 | 0.00 | 0.00 | 0.00 | 10 | 1022.0 |
| 20260905133154 | 53 | 289 | 0.0 | 2.0 | 0.00 | 0.00 | 0.00 | 10 | 1022.0 |
| 20260905132653 | 53 | 296 | 0.0 | 0.0 | 0.00 | 0.00 | 0.00 | 10 | 1021.1 |
| 20260905132148 | 53 | 308 | 0.0 | 0.0 | 0.00 | 0.00 | 0.00 | 10 | 1020.6 |
| 20260905131643 | 53 | 329 | 0.0 | 0.0 | 0.00 | 0.00 | 0.00 | 10 | 1020.5 |
| 20260905131138 | 53 | 6 | 0.0 | 0.0 | 0.00 | 0.00 | 0.00 | 10 | 1020.6 |
| 20260905130632 | 52 | 0 | 0.0 | 0.0 | 0.00 | 0.00 | 0.00 | 10 | 1020.6 |
| 20260905130126 | 52 | 347 | 0.0 | 0.0 | 0.00 | 0.00 | 0.00 | 10 | 1020.6 |
| 20260905125621 | 52 | 1 | 0.0 | 0.0 | 0.00 | 0.00 | 0.00 | 10 | 1020.7 |
| 20260905125117 | 53 | 22 | 0.0 | 0.0 | 0.00 | 0.00 | 0.00 | 10 | 1020.9 |
| 20260905124613 | 53 | 251 | 0.0 | 0.0 | 0.00 | 0.00 | 0.00 | 10 | 1021.0 |
| 20260905124109 | 52 | 346 | 0.0 | 0.0 | 0.00 | 0.00 | 0.00 | 10 | 1021.0 |
| 20260905123604 | 53 | 59 | 0.0 | 0.0 | 0.00 | 0.00 | 0.00 | 10 | 1021.0 |
| 20260905123101 | 53 | 58 | 0.0 | 0.0 | 0.00 | 0.00 | 0.00 | 10 | 1021.1 |
| 20260905122601 | 53 | 52 | 0.0 | 0.0 | 0.00 | 0.00 | 0.00 | 10 | 1020.7 |
| 20260905122055 | 53 | 11 | 0.0 | 0.0 | 0.00 | 0.00 | 0.00 | 10 | 1020.9 |
| 20260905121550 | 53 | 306 | 0.0 | 0.0 | 0.00 | 0.00 | 0.00 | 10 | 1020.9 |
| 20260905121045 | 53 | 315 | 0.0 | 0.0 | 0.00 | 0.00 | 0.00 | 10 | 1021.0 |
| 20260905120544 | 53 | 301 | 0.0 | 0.0 | 0.00 | 0.00 | 0.00 | 10 | 1020.8 |
| 20260905120039 | 52 | 340 | 0.0 | 1.0 | 0.00 | 0.00 | 0.00 | 10 | 1020.8 |
| 20260905115538 | 51 | 298 | 0.0 | 1.0 | 0.00 | 0.00 | 0.00 | 10 | 1020.8 |
| 20260905115033 | 51 | 292 | 0.0 | 2.0 | 0.00 | 0.00 | 0.00 | 10 | 1020.6 |
| 20260905114532 | 51 | 294 | 0.0 | 1.0 | 0.00 | 0.00 | 0.00 | 10 | 1020.5 |
| 20260905114032 | 51 | 311 | 0.0 | 1.0 | 0.00 | 0.00 | 0.00 | 10 | 1020.5 |
| 20260905113527 | 52 | 295 | 0.0 | 0.0 | 0.00 | 0.00 | 0.00 | 10 | 1020.5 |
| 20260905113022 | 52 | 310 | 0.0 | 0.0 | 0.00 | 0.00 | 0.00 | 10 | 1020.0 |
| 20260905112517 | 53 | 320 | 0.0 | 0.0 | 0.00 | 0.00 | 0.00 | 10 | 1019.9 |
| 20260905112013 | 53 | 296 | 0.0 | 0.0 | 0.00 | 0.00 | 0.00 | 10 | 1019.9 |
| 20260905111513 | 53 | 290 | 0.0 | 0.0 | 0.00 | 0.00 | 0.00 | 10 | 1020.3 |
| 20260905111007 | 53 | 233 | 0.0 | 0.0 | 0.00 | 0.00 | 0.00 | 10 | 1019.8 |
| 20260905110506 | 53 | 258 | 0.0 | 0.0 | 0.00 | 0.00 | 0.00 | 10 | 1019.5 |
| 20260905110001 | 52 | 297 | 0.0 | 0.0 | 0.00 | 0.00 | 0.00 | 10 | 1019.7 |
| 20260905105455 | 51 | 288 | 0.0 | 0.0 | 0.00 | 0.00 | 0.00 | 10 | 1019.0 |
| 20260905104954 | 50 | 315 | 0.0 | 0.0 | 0.00 | 0.00 | 0.00 | 10 | 1019.4 |
| 20260905104451 | 49 | 288 | 0.0 | 0.0 | 0.00 | 0.00 | 0.00 | 10 | 1019.5 |
| 20260905103945 | 50 | 307 | 0.0 | 0.0 | 0.00 | 0.00 | 0.00 | 10 | 1019.5 |
| 20260905103440 | 50 | 326 | 0.0 | 0.0 | 0.00 | 0.00 | 0.00 | 10 | 1019.1 |
| 20260905102936 | 50 | 327 | 0.0 | 0.0 | 0.00 | 0.00 | 0.00 | 10 | 1019.6 |
| 20260905102432 | 49 | 330 | 0.0 | 0.0 | 0.00 | 0.00 | 0.00 | 10 | 1019.7 |
| 20260905101927 | 48 | 340 | 0.0 | 0.0 | 0.00 | 0.00 | 0.00 | 10 | 1019.7 |
| 20260905101426 | 49 | 324 | 0.0 | 0.0 | 0.00 | 0.00 | 0.00 | 10 | 1019.6 |
| 20260905100921 | 51 | 328 | 0.0 | 0.0 | 0.00 | 0.00 | 0.00 | 10 | 1019.6 |
| 20260905100416 | 51 | 335 | 0.0 | 0.0 | 0.00 | 0.00 | 0.00 | 10 | 1019.4 |
| 20260905095916 | 51 | 321 | 0.0 | 0.0 | 0.00 | 0.00 | 0.00 | 10 | 1019.6 |
| 20260905095411 | 52 | 305 | 0.0 | 0.0 | 0.00 | 0.00 | 0.00 | 10 | 1019.5 |
| 20260905094910 | 52 | 339 | 0.0 | 0.0 | 0.00 | 0.00 | 0.00 | 10 | 1019.6 |
| 20260905094406 | 52 | 313 | 0.0 | 0.0 | 0.00 | 0.00 | 0.00 | 10 | 1019.4 |
| 20260905093905 | 52 | 356 | 0.0 | 0.0 | 0.00 | 0.00 | 0.00 | 10 | 1019.1 |
| 20260905093401 | 52 | 347 | 0.0 | 0.0 | 0.00 | 0.00 | 0.00 | 10 | 1019.2 |
| 20260905092856 | 52 | 36 | 0.0 | 0.0 | 0.00 | 0.00 | 0.00 | 10 | 1019.1 |
| 20260905092356 | 52 | 41 | 0.0 | 0.0 | 0.00 | 0.00 | 0.00 | 10 | 1018.9 |
| 20260905091851 | 52 | 40 | 0.0 | 0.0 | 0.00 | 0.00 | 0.00 | 10 | 1019.0 |
| 20260905091346 | 53 | 22 | 0.0 | 0.0 | 0.00 | 0.00 | 0.00 | 10 | 1018.9 |
| 20260905090845 | 53 | 55 | 0.0 | 0.0 | 0.00 | 0.00 | 0.00 | 10 | 1019.0 |
| 20260905090341 | 53 | 57 | 0.0 | 0.0 | 0.00 | 0.00 | 0.00 | 10 | 1018.9 |
| 20260905085840 | 53 | 56 | 0.0 | 0.0 | 0.00 | 0.00 | 0.00 | 10 | 1018.7 |
| 20260905085339 | 54 | 47 | 0.0 | 0.0 | 0.00 | 0.00 | 0.00 | 10 | 1018.9 |
| 20260905084835 | 55 | 38 | 0.0 | 0.0 | 0.00 | 0.00 | 0.00 | 10 | 1018.8 |
| 20260905084334 | 54 | 44 | 0.0 | 0.0 | 0.00 | 0.00 | 0.00 | 10 | 1018.5 |
| 20260905083829 | 54 | 48 | 0.0 | 0.0 | 0.00 | 0.00 | 0.00 | 10 | 1018.5 |
| 20260905083325 | 53 | 37 | 0.0 | 0.0 | 0.00 | 0.00 | 0.00 | 10 | 1018.1 |
| 20260905082820 | 53 | 48 | 0.0 | 0.0 | 0.00 | 0.00 | 0.00 | 10 | 1018.4 |
| 20260905082317 | 53 | 50 | 0.0 | 0.0 | 0.00 | 0.00 | 0.00 | 10 | 1018.4 |
| 20260905081812 | 53 | 51 | 0.0 | 0.0 | 0.00 | 0.00 | 0.00 | 10 | 1018.3 |
| 20260905081307 | 52 | 35 | 0.0 | 0.0 | 0.00 | 0.00 | 0.00 | 10 | 1018.5 |
| 20260905080805 | 53 | 50 | 0.0 | 0.0 | 0.00 | 0.00 | 0.00 | 10 | 1018.9 |
| 20260905080300 | 54 | 50 | 0.0 | 0.0 | 0.00 | 0.00 | 0.00 | 10 | 1019.4 |
| 20260905075758 | 53 | 3 | 0.0 | 0.0 | 0.00 | 0.00 | 0.00 | 10 | 1019.0 |
| 20260905075253 | 53 | 325 | 0.0 | 0.0 | 0.00 | 0.00 | 0.00 | 10 | 1019.2 |
| 20260905074751 | 53 | 305 | 0.0 | 0.0 | 0.00 | 0.00 | 0.00 | 10 | 1019.4 |
| 20260905074247 | 54 | 308 | 0.0 | 1.0 | 0.00 | 0.00 | 0.00 | 10 | 1019.5 |
| 20260905073737 | 53 | 330 | 0.0 | 0.0 | 0.00 | 0.00 | 0.00 | 10 | 1019.4 |
| 20260905073233 | 54 | 336 | 0.0 | 0.0 | 0.00 | 0.00 | 0.00 | 10 | 1019.1 |
| 20260905072732 | 56 | 2 | 0.0 | 0.0 | 0.00 | 0.00 | 0.00 | 10 | 1019.5 |
| 20260905072227 | 56 | 10 | 0.0 | 0.0 | 0.00 | 0.00 | 0.00 | 10 | 1019.7 |
| 20260905071724 | 56 | 26 | 0.0 | 0.0 | 0.00 | 0.00 | 0.00 | 10 | 1019.1 |
| 20260905071220 | 56 | 20 | 0.0 | 0.0 | 0.00 | 0.00 | 0.00 | 10 | 1019.0 |
| 20260905070714 | 55 | 17 | 0.0 | 0.0 | 0.00 | 0.00 | 0.00 | 10 | 1018.9 |
| 20260905070211 | 54 | 17 | 0.0 | 0.0 | 0.00 | 0.00 | 0.00 | 10 | 1018.8 |
| 20260905065709 | 54 | 51 | 0.0 | 0.0 | 0.00 | 0.00 | 0.00 | 10 | 1018.7 |
| 20260905065203 | 54 | 33 | 0.0 | 0.0 | 0.00 | 0.00 | 0.00 | 10 | 1018.8 |
| 20260905064659 | 53 | 47 | 0.0 | 0.0 | 0.00 | 0.00 | 0.00 | 10 | 1018.9 |
| 20260905064154 | 54 | 46 | 0.0 | 0.0 | 0.00 | 0.00 | 0.00 | 10 | 1018.9 |
| 20260905063653 | 56 | 24 | 0.0 | 0.0 | 0.00 | 0.00 | 0.00 | 10 | 1018.8 |
| 20260905063149 | 57 | 321 | 1.0 | 1.0 | 0.00 | 0.00 | 0.00 | 10 | 1018.9 |
| 20260905062645 | 58 | 324 | 0.0 | 1.0 | 0.00 | 0.00 | 0.00 | 10 | 1019.1 |
| 20260905062144 | 58 | 340 | 0.0 | 0.0 | 0.00 | 0.00 | 0.00 | 10 | 1018.8 |
| 20260905061638 | 56 | 0 | 0.0 | 0.0 | 0.00 | 0.00 | 0.00 | 10 | 1018.5 |
| 20260905061138 | 56 | 338 | 0.0 | 0.0 | 0.00 | 0.00 | 0.00 | 10 | 1018.6 |
| 20260905060634 | 57 | 347 | 0.0 | 0.0 | 0.00 | 0.00 | 0.00 | 10 | 1018.1 |
| 20260905060130 | 57 | 2 | 0.0 | 0.0 | 0.00 | 0.00 | 0.00 | 10 | 1018.1 |
| 20260905055628 | 57 | 17 | 0.0 | 0.0 | 0.00 | 0.00 | 0.00 | 10 | 1018.4 |
| 20260905055124 | 57 | 27 | 0.0 | 0.0 | 0.00 | 0.00 | 0.00 | 10 | 1018.7 |
| 20260905054620 | 57 | 30 | 0.0 | 0.0 | 0.00 | 0.00 | 0.00 | 10 | 1018.3 |
| 20260905054115 | 56 | 353 | 0.0 | 0.0 | 0.00 | 0.00 | 0.00 | 10 | 1018.1 |
| 20260905053615 | 55 | 6 | 0.0 | 0.0 | 0.00 | 0.00 | 0.00 | 10 | 1018.4 |
| 20260905053110 | 56 | 48 | 0.0 | 0.0 | 0.00 | 0.00 | 0.00 | 10 | 1018.4 |
| 20260905052609 | 56 | 40 | 0.0 | 0.0 | 0.00 | 0.00 | 0.00 | 10 | 1018.4 |
| 20260905052104 | 56 | 46 | 0.0 | 0.0 | 0.00 | 0.00 | 0.00 | 10 | 1018.0 |
| 20260905051559 | 58 | 42 | 0.0 | 0.0 | 0.00 | 0.00 | 0.00 | 10 | 1018.6 |
| 20260905051055 | 59 | 36 | 0.0 | 0.0 | 0.00 | 0.00 | 0.00 | 10 | 1018.6 |
| 20260905050546 | 59 | 38 | 0.0 | 0.0 | 0.00 | 0.00 | 0.00 | 10 | 1018.5 |
| 20260905050043 | 59 | 15 | 0.0 | 0.0 | 0.00 | 0.00 | 0.00 | 10 | 1018.5 |
| 20260905045542 | 59 | 8 | 0.0 | 0.0 | 0.00 | 0.00 | 0.00 | 10 | 1018.5 |
| 20260905045033 | 59 | 17 | 0.0 | 0.0 | 0.00 | 0.00 | 0.00 | 10 | 1018.3 |
| 20260905044533 | 59 | 27 | 0.0 | 0.0 | 0.00 | 0.00 | 0.00 | 10 | 1018.0 |
| 20260905044032 | 59 | 42 | 0.0 | 0.0 | 0.00 | 0.00 | 0.00 | 10 | 1018.0 |
| 20260905043531 | 60 | 25 | 0.0 | 0.0 | 0.00 | 0.00 | 0.00 | 10 | 1018.1 |
| 20260905043022 | 60 | 49 | 0.0 | 0.0 | 0.00 | 0.00 | 0.00 | 10 | 1018.4 |
| 20260905042520 | 61 | 53 | 0.0 | 0.0 | 0.00 | 0.00 | 0.00 | 10 | 1018.9 |
| 20260905042016 | 61 | 50 | 0.0 | 0.0 | 0.00 | 0.00 | 0.00 | 10 | 1018.7 |
| 20260905041511 | 61 | 40 | 0.0 | 0.0 | 0.00 | 0.00 | 0.00 | 10 | 1018.3 |
| 20260905041007 | 61 | 30 | 0.0 | 0.0 | 0.00 | 0.00 | 0.00 | 10 | 1018.3 |
| 20260905040506 | 61 | 13 | 0.0 | 0.0 | 0.00 | 0.00 | 0.00 | 10 | 1017.6 |
| 20260905040005 | 62 | 358 | 0.0 | 0.0 | 0.00 | 0.00 | 0.00 | 10 | 1017.4 |
| 20260905035500 | 61 | 6 | 0.0 | 0.0 | 0.00 | 0.00 | 0.00 | 10 | 1017.3 |
| 20260905034958 | 62 | 1 | 0.0 | 0.0 | 0.00 | 0.00 | 0.00 | 10 | 1017.3 |
| 20260905034458 | 61 | 15 | 0.0 | 0.0 | 0.00 | 0.00 | 0.00 | 10 | 1017.0 |
| 20260905033956 | 61 | 33 | 0.0 | 0.0 | 0.00 | 0.00 | 0.00 | 10 | 1017.2 |
| 20260905033451 | 62 | 31 | 0.0 | 0.0 | 0.00 | 0.00 | 0.00 | 10 | 1017.0 |
| 20260905032946 | 62 | 23 | 0.0 | 1.0 | 0.00 | 0.00 | 0.00 | 10 | 1017.0 |
| 20260905032442 | 63 | 38 | 0.0 | 2.0 | 0.00 | 0.00 | 0.00 | 10 | 1017.3 |
| 20260905031936 | 63 | 26 | 0.0 | 1.0 | 0.00 | 0.00 | 0.00 | 10 | 1017.4 |